Date String (YYYY-MM-DD hh:mm:ss) UTC,Instrument flags,absolute air pressure of the measurement (hPa),sample flow rate (lpm),inlet stack bypass flow (lpm),air temperature of the measurement (°C),ambient temperature measured by the external sensor (°C),aerosol sample conditioner tube jacket temperature (°C),OPC LED temperature (°C),internal box temperature (°C),relative humidity of the measurement (%),span deviation,mass concentration of particles derived from Lorenz-Mie calculation of OPC scattering (μg/m³),mass concentration of particles derived from Lorenz-Mie calculation of OPC scattering (μg/m³),mass concentration of particles derived from Lorenz-Mie calculation of OPC scattering (μg/m³)
DateTimeUTC,F1_M11,P_M11,Q1_M11,Q2_M11,T1_M11,T2_M11,T3_M11,T4_M11,T5_M11,U1_M11,ZSPAN_M11,X0_M11,X2_M11,X1_M11
2023-11-28 14:00:00,SystemResetWarning,0832.2,5.00,000.00,018.7,017.5,000.0,027.2,020.0,8.4,0000.0,0003.20,0001.63,0001.42
2023-11-28 14:01:00,SystemResetWarning,0832.1,5.00,000.00,018.7,017.5,000.0,027.2,020.0,8.0,0000.0,0003.08,0001.54,0001.36
2023-11-28 14:02:00,SystemResetWarning,0832.2,4.98,000.00,018.7,017.5,000.0,027.2,020.0,8.0,0000.0,0002.88,0001.49,0001.32
2023-11-28 14:03:00,SystemResetWarning,0832.2,5.00,000.00,018.7,017.5,000.0,027.2,020.0,8.1,0000.0,0001.88,0001.46,0001.29
2023-11-28 14:04:00,SystemResetWarning,0832.2,5.01,000.00,018.7,017.5,000.0,027.2,020.0,8.1,0000.0,0001.78,0001.41,0001.25
2023-11-28 14:05:00,SystemResetWarning,0832.2,5.01,000.00,018.7,017.5,000.0,027.2,020.0,8.1,0000.0,0001.76,0001.40,0001.23
2023-11-28 14:06:00,SystemResetWarning,0832.2,4.99,000.00,018.7,017.5,000.0,027.2,020.0,7.9,0000.0,0001.72,0001.36,0001.19
2023-11-28 14:07:00,SystemResetWarning,0832.2,4.99,000.00,018.7,017.5,000.0,027.2,020.0,7.9,0000.0,0001.64,0001.31,0001.13
2023-11-28 14:08:00,SystemResetWarning,0832.2,5.00,000.00,018.7,017.5,000.0,027.2,020.0,7.6,0000.0,0001.62,0001.28,0001.09
2023-11-28 14:09:00,SystemResetWarning,0832.2,5.01,000.00,018.7,017.5,000.0,027.2,020.0,7.7,0000.0,0001.57,0001.22,0001.03
2023-11-28 14:10:00,SystemResetWarning,0832.2,5.00,000.00,018.7,017.5,000.0,027.2,020.0,7.6,0000.0,0001.79,0001.14,0000.94
2023-11-28 14:11:00,SystemResetWarning,0832.2,5.00,000.00,018.7,017.5,000.0,027.2,020.0,7.5,0000.0,0001.83,0001.11,0000.90
2023-11-28 14:12:00,SystemResetWarning,0832.2,5.00,000.00,018.7,017.5,000.0,027.2,020.0,7.6,0000.0,0001.79,0001.09,0000.88
2023-11-28 14:13:00,SystemResetWarning,0832.2,5.00,000.00,018.7,017.5,000.0,027.2,020.0,7.5,0000.0,0001.79,0001.07,0000.85
2023-11-28 14:14:00,SystemResetWarning,0832.3,5.01,000.00,018.7,017.5,000.0,027.2,020.0,7.7,0000.0,0001.75,0001.04,0000.83
2023-11-28 14:15:00,SystemResetWarning,0832.3,5.01,000.00,018.7,017.5,000.0,027.2,020.0,7.8,0000.0,0001.75,0001.02,0000.80
2023-11-28 14:16:00,SystemResetWarning,0832.3,5.01,000.00,018.7,017.5,000.0,027.1,020.0,7.7,0000.0,0001.75,0000.98,0000.76
2023-11-28 14:17:00,SystemResetWarning,0832.4,4.99,000.00,018.7,017.5,000.0,027.1,020.0,7.7,0000.0,0001.86,0000.97,0000.72
2023-11-28 14:18:00,SystemResetWarning,0832.5,4.99,000.00,018.7,017.5,000.0,027.1,020.0,7.7,0000.0,0001.85,0000.93,0000.71
2023-11-28 14:19:00,SystemResetWarning,0832.4,5.01,000.00,018.7,017.5,000.0,027.2,020.0,7.6,0000.0,0001.80,0000.90,0000.69
2023-11-28 14:20:00,SystemResetWarning,0832.5,5.00,000.00,018.7,017.5,000.0,027.2,020.0,7.6,0000.0,0001.82,0000.91,0000.69
2023-11-28 14:21:00,SystemResetWarning,0832.5,4.98,000.00,018.7,017.5,000.0,027.2,020.0,7.5,0000.0,0001.57,0000.92,0000.68
2023-11-28 14:22:00,SystemResetWarning,0832.5,5.01,000.00,018.7,017.6,000.0,027.2,020.0,7.5,0000.0,0001.48,0000.91,0000.68
2023-11-28 14:23:00,SystemResetWarning,0832.5,5.01,000.00,018.7,017.6,000.0,027.2,020.0,7.6,0000.0,0001.52,0000.90,0000.67
2023-11-28 14:24:00,SystemResetWarning,0832.5,5.01,000.00,018.7,017.6,000.0,027.2,020.0,7.6,0000.0,0001.60,0000.93,0000.67
2023-11-28 14:25:00,SystemResetWarning,0832.5,5.00,000.00,018.7,017.6,000.0,027.2,020.0,7.5,0000.0,0001.67,0000.95,0000.68
2023-11-28 14:26:00,SystemResetWarning,0832.5,5.00,000.00,018.7,017.6,000.0,027.2,020.0,7.6,0000.0,0001.67,0000.96,0000.67
2023-11-28 14:27:00,SystemResetWarning,0832.5,4.99,000.00,018.7,017.6,000.0,027.2,020.0,7.8,0000.0,0001.63,0000.95,0000.68
2023-11-28 14:28:00,SystemResetWarning,0832.5,4.99,000.00,018.7,017.6,000.0,027.2,020.0,7.6,0000.0,0001.48,0000.90,0000.67
2023-11-28 14:29:00,SystemResetWarning,0832.5,5.00,000.00,018.7,017.6,000.0,027.2,020.0,7.6,0000.0,0001.61,0000.90,0000.67
2023-11-28 14:30:00,SystemResetWarning,0832.5,5.01,000.00,018.7,017.6,000.0,027.2,020.0,7.6,0000.0,0001.63,0000.91,0000.67
2023-11-28 14:31:00,SystemResetWarning,0832.5,5.01,000.00,018.7,017.6,000.0,027.2,020.0,7.5,0000.0,0001.59,0000.89,0000.67
2023-11-28 14:32:00,SystemResetWarning,0832.5,5.01,000.00,018.7,017.6,000.0,027.2,020.0,7.5,0000.0,0001.56,0000.88,0000.66
2023-11-28 14:33:00,SystemResetWarning,0832.5,4.99,000.00,018.7,017.6,000.0,027.2,020.0,7.6,0000.0,0001.49,0000.86,0000.66
2023-11-28 14:34:00,SystemResetWarning,0832.5,4.99,000.00,018.7,017.6,000.0,027.2,020.0,7.5,0000.0,0001.47,0000.87,0000.66
2023-11-28 14:35:00,SystemResetWarning,0832.5,5.01,000.00,018.7,017.6,000.0,027.2,020.0,7.9,0000.0,0001.42,0000.86,0000.66
2023-11-28 14:36:00,SystemResetWarning,0832.5,5.01,000.00,018.7,017.6,000.0,027.2,020.0,8.0,0000.0,0001.39,0000.84,0000.66
2023-11-28 14:37:00,SystemResetWarning,0832.5,5.00,000.00,018.7,017.6,000.0,027.2,020.0,7.8,0000.0,0001.45,0000.84,0000.66
2023-11-28 14:38:00,SystemResetWarning,0832.5,5.00,000.00,018.7,017.6,000.0,027.2,020.0,7.7,0000.0,0001.58,0000.84,0000.64
2023-11-28 14:39:00,SystemResetWarning,0832.6,4.99,000.00,018.7,017.6,000.0,027.2,020.0,8.6,0000.0,0001.55,0000.83,0000.64
2023-11-28 14:40:00,SystemResetWarning,0832.5,5.00,000.00,018.7,017.6,000.0,027.2,020.0,8.8,0000.0,0001.38,0000.82,0000.64
2023-11-28 14:41:00,SystemResetWarning,0832.5,5.00,000.00,018.7,017.7,000.0,027.2,020.0,8.1,0000.0,0001.37,0000.82,0000.63
2023-11-28 14:42:00,SystemResetWarning,0832.5,5.00,000.00,018.7,017.7,000.0,027.2,020.0,7.9,0000.0,0001.37,0000.81,0000.62
2023-11-28 14:43:00,SystemResetWarning,0832.5,5.00,000.00,018.7,017.7,000.0,027.2,020.0,9.3,0000.0,0001.36,0000.80,0000.62
2023-11-28 14:44:00,SystemResetWarning,0832.5,5.00,000.00,018.7,017.7,000.0,027.2,020.0,9.3,0000.0,0002.47,0000.80,0000.62
2023-11-28 14:45:00,SystemResetWarning,0832.6,5.00,000.00,018.7,017.7,000.0,027.2,020.0,9.6,0000.0,0002.48,0000.82,0000.63
2023-11-28 14:46:00,SystemResetWarning,0832.5,5.00,000.00,018.7,017.8,000.0,027.1,020.0,9.4,0000.0,0002.52,0000.84,0000.64
2023-11-28 14:47:00,SystemResetWarning,0832.5,5.01,000.00,018.7,017.8,000.0,027.1,020.0,9.1,0000.0,0002.47,0000.83,0000.64
2023-11-28 14:48:00,SystemResetWarning,0832.5,5.00,000.00,018.7,017.8,000.0,027.2,020.0,8.5,0000.0,0002.46,0000.83,0000.64
2023-11-28 14:49:00,SystemResetWarning,0832.6,4.99,000.00,018.7,017.8,000.0,027.2,020.0,8.6,0000.0,0002.41,0000.86,0000.66
2023-11-28 14:50:00,SystemResetWarning,0832.6,5.00,000.00,018.7,017.8,000.0,027.2,020.0,8.8,0000.0,0002.50,0000.95,0000.72
2023-11-28 14:51:00,SystemResetWarning,0832.6,5.00,000.00,018.7,017.8,000.0,027.2,020.0,9.5,0000.0,0002.65,0001.08,0000.83
2023-11-28 14:52:00,SystemResetWarning,0832.6,5.00,000.00,018.7,017.9,000.0,027.1,020.0,9.8,0000.0,0002.94,0001.23,0000.94
2023-11-28 14:53:00,SystemResetWarning,0832.6,5.00,000.00,018.7,017.9,000.0,027.1,020.0,9.4,0000.0,0003.01,0001.31,0001.03
2023-11-28 14:54:00,SystemResetWarning,0832.7,4.99,000.00,018.7,017.9,000.0,027.1,020.0,9.7,0000.0,0003.12,0001.39,0001.08
2023-11-28 14:55:00,SystemResetWarning,0832.7,4.99,000.00,018.8,017.9,000.0,027.1,020.0,10.0,0000.0,0002.36,0001.46,0001.13
2023-11-28 14:56:00,SystemResetWarning,0832.7,5.00,000.00,018.8,017.9,000.0,027.1,020.0,10.1,0000.0,0002.16,0001.52,0001.21
2023-11-28 14:57:00,SystemResetWarning,0832.7,5.01,000.00,018.8,017.9,000.0,027.1,020.0,10.1,0000.0,0002.31,0001.63,0001.31
2023-11-28 14:58:00,SystemResetWarning,0832.7,5.01,000.00,018.8,017.9,000.0,027.1,020.0,9.7,0000.0,0002.48,0001.78,0001.44
2023-11-28 14:59:00,SystemResetWarning,0832.7,5.00,000.00,018.8,017.9,000.0,027.1,020.0,9.5,0000.0,0002.94,0001.96,0001.58
